,,Stat5,,Stat1,,Stat2,,Stat3,,Stat4,,Wind1,,Wind1,
time,status,PA1M_AVG,status,PR1M_SUM,status,RH1M_AVG,status,SR1M_AVG,status,TA1M_AVG,status,W1dAve1m,status,W1sAve1m,
2003-02-17, 00:00:00,VALID,919.97,VALID,0,VALID,99.3899,VALID,-0.0679233,VALID,18.9167,VALID,139,VALID,0.38049,
2003-02-17, 00:01:00,VALID,919.962,VALID,0,VALID,99.4001,VALID,-0.0849042,VALID,18.9356,VALID,148,VALID,0.257607,
2003-02-17, 00:02:00,VALID,919.959,VALID,0,VALID,99.4217,VALID,-0.0509425,VALID,18.9453,VALID,156,VALID,0.40842,
2003-02-17, 00:03:00,VALID,919.947,VALID,0,VALID,99.4166,VALID,-0.0849042,VALID,18.9654,VALID,159,VALID,0.586349,
2003-02-17, 00:04:00,VALID,919.934,VALID,0,VALID,99.4204,VALID,-0.0849042,VALID,18.9481,VALID,159,VALID,0.392383,
2003-02-17, 00:05:00,VALID,919.938,VALID,0,VALID,99.4357,VALID,-0.0339617,VALID,18.9682,VALID,159,VALID,0.331055,
2003-02-17, 00:06:00,VALID,919.916,VALID,0,VALID,99.4535,VALID,0,VALID,18.9774,VALID,148,VALID,0.348958,
2003-02-17, 00:07:00,VALID,919.916,VALID,0,VALID,99.4662,VALID,0.0169808,VALID,18.9764,VALID,146,VALID,0.197424,
2003-02-17, 00:08:00,VALID,919.897,VALID,0,VALID,99.4738,VALID,0.0679233,VALID,18.9993,VALID,146,VALID,0.121916,
2003-02-17, 00:09:00,VALID,919.893,VALID,0,VALID,99.5018,VALID,0,VALID,19.0187,VALID,146,VALID,0,
2003-02-17, 00:10:00,VALID,919.893,VALID,0,VALID,99.5005,VALID,0.0339617,VALID,19.0411,VALID,146,VALID,0,
2003-02-17, 00:11:00,VALID,919.883,VALID,0,VALID,99.517,VALID,0.0169808,VALID,19.0739,VALID,146,VALID,0,
2003-02-17, 00:12:00,VALID,919.867,VALID,0,VALID,99.5501,VALID,0,VALID,19.1194,VALID,63,VALID,0.439215,
2003-02-17, 00:13:00,VALID,919.867,VALID,0,VALID,99.5514,VALID,0,VALID,19.1194,VALID,47,VALID,0.476372,
2003-02-17, 00:14:00,VALID,919.861,VALID,0,VALID,99.5539,VALID,0,VALID,19.1057,VALID,45,VALID,0.402872,
2003-02-17, 00:15:00,VALID,919.856,VALID,0,VALID,99.545,VALID,0.0169808,VALID,19.1059,VALID,40,VALID,0.432692,
2003-02-17, 00:16:00,VALID,919.832,VALID,0,VALID,99.5323,VALID,0,VALID,19.0963,VALID,40,VALID,0.31955,
2003-02-17, 00:17:00,VALID,919.821,VALID,0,VALID,99.5476,VALID,0.0169808,VALID,19.1059,VALID,40,VALID,0.115337,
2003-02-17, 00:18:00,VALID,919.806,VALID,0,VALID,99.5412,VALID,0.0339617,VALID,19.1087,VALID,40,VALID,0.00821314,
2003-02-17, 00:19:00,VALID,919.789,VALID,0,VALID,99.5399,VALID,0,VALID,19.1127,VALID,40,VALID,0.139258,
2003-02-17, 00:20:00,VALID,919.79,VALID,0,VALID,99.5399,VALID,-0.0169808,VALID,19.1,VALID,40,VALID,0.308293,
2003-02-17, 00:21:00,VALID,919.793,VALID,0,VALID,99.5387,VALID,-0.101885,VALID,19.1012,VALID,40,VALID,0.274609,
2003-02-17, 00:22:00,VALID,919.792,VALID,0,VALID,99.545,VALID,-0.101885,VALID,19.1012,VALID,40,VALID,0.474559,
2003-02-17, 00:23:00,VALID,919.786,VALID,0,VALID,99.5565,VALID,-0.0679233,VALID,19.0811,VALID,40,VALID,0.451029,
2003-02-17, 00:24:00,VALID,919.789,VALID,0,VALID,99.5476,VALID,-0.0679233,VALID,19.0882,VALID,40,VALID,0.492647,
2003-02-17, 00:25:00,VALID,919.802,VALID,0,VALID,99.5501,VALID,-0.0849042,VALID,19.0885,VALID,40,VALID,0.250411,
2003-02-17, 00:26:00,VALID,919.805,VALID,0,VALID,99.5616,VALID,-0.0849042,VALID,19.0975,VALID,40,VALID,0.311444,
2003-02-17, 00:27:00,VALID,919.822,VALID,0,VALID,99.573,VALID,-0.101885,VALID,19.1074,VALID,40,VALID,0.172508,
2003-02-17, 00:28:00,VALID,919.84,VALID,0,VALID,99.5755,VALID,-0.101885,VALID,19.127,VALID,40,VALID,0.056593,
2003-02-17, 00:29:00,VALID,919.816,VALID,0,VALID,99.5616,VALID,-0.118866,VALID,19.1238,VALID,40,VALID,0.00370066,
2003-02-17, 00:30:00,VALID,919.819,VALID,0,VALID,99.5539,VALID,-0.101885,VALID,19.1104,VALID,40,VALID,0.237664,
2003-02-17, 00:31:00,VALID,919.813,VALID,0,VALID,99.545,VALID,-0.118866,VALID,19.1173,VALID,40,VALID,0.183811,
2003-02-17, 00:32:00,VALID,919.81,VALID,0,VALID,99.5387,VALID,-0.101885,VALID,19.1303,VALID,40,VALID,0.149609,
2003-02-17, 00:33:00,VALID,919.813,VALID,0,VALID,99.5577,VALID,-0.0849042,VALID,19.1402,VALID,40,VALID,0,
2003-02-17, 00:34:00,VALID,919.803,VALID,0,VALID,99.5488,VALID,-0.0849042,VALID,19.1596,VALID,40,VALID,0,
2003-02-17, 00:35:00,VALID,919.817,VALID,0,VALID,99.5565,VALID,-0.0679233,VALID,19.1561,VALID,40,VALID,0,
2003-02-17, 00:36:00,VALID,919.8,VALID,0,VALID,99.5527,VALID,0.0169808,VALID,19.1539,VALID,40,VALID,0.120192,
2003-02-17, 00:37:00,VALID,919.803,VALID,0,VALID,99.5539,VALID,-0.0169808,VALID,19.1872,VALID,40,VALID,0.0378606,
2003-02-17, 00:38:00,VALID,919.798,VALID,0,VALID,99.5628,VALID,0,VALID,19.2069,VALID,40,VALID,0.0591216,
2003-02-17, 00:39:00,VALID,919.79,VALID,0,VALID,99.5654,VALID,-0.0169808,VALID,19.2059,VALID,40,VALID,0.053125,
2003-02-17, 00:40:00,VALID,919.787,VALID,0,VALID,99.5527,VALID,-0.0169808,VALID,19.226,VALID,40,VALID,0.155664,
2003-02-17, 00:41:00,VALID,919.792,VALID,0,VALID,99.5654,VALID,-0.0169808,VALID,19.2288,VALID,40,VALID,0,
2003-02-17, 00:42:00,VALID,919.788,VALID,0,VALID,99.5654,VALID,0,VALID,19.2653,VALID,40,VALID,0,
2003-02-17, 00:43:00,VALID,919.772,VALID,0,VALID,99.559,VALID,0,VALID,19.2613,VALID,40,VALID,0,
2003-02-17, 00:44:00,VALID,919.759,VALID,0,VALID,99.5755,VALID,0,VALID,19.284,VALID,40,VALID,0,
2003-02-17, 00:45:00,VALID,919.759,VALID,0,VALID,99.5832,VALID,0.0169808,VALID,19.2969,VALID,40,VALID,0.0644531,
2003-02-17, 00:46:00,VALID,919.745,VALID,0,VALID,99.5717,VALID,0,VALID,19.3004,VALID,40,VALID,0.0294471,
2003-02-17, 00:47:00,VALID,919.735,VALID,0,VALID,99.573,VALID,-0.0169808,VALID,19.2999,VALID,40,VALID,0.0398247,
2003-02-17, 00:48:00,VALID,919.719,VALID,0,VALID,99.5704,VALID,-0.0169808,VALID,19.2909,VALID,12,VALID,0.243877,
2003-02-17, 00:49:00,VALID,919.709,VALID,0,VALID,99.5425,VALID,0.0169808,VALID,19.281,VALID,256,VALID,0.426683,
2003-02-17, 00:50:00,VALID,919.711,VALID,0,VALID,99.545,VALID,0,VALID,19.2782,VALID,256,VALID,0.384766,
2003-02-17, 00:51:00,VALID,919.696,VALID,0,VALID,99.5399,VALID,0.0169808,VALID,19.2514,VALID,256,VALID,0.271341,
2003-02-17, 00:52:00,VALID,919.677,VALID,0,VALID,99.5323,VALID,0,VALID,19.2449,VALID,256,VALID,0.194382,
2003-02-17, 00:53:00,VALID,919.67,VALID,0,VALID,99.5298,VALID,0,VALID,19.2352,VALID,256,VALID,0.12859,
2003-02-17, 00:54:00,VALID,919.671,VALID,0,VALID,99.5399,VALID,0.0169808,VALID,19.2643,VALID,256,VALID,0.213034,
2003-02-17, 00:55:00,VALID,919.659,VALID,0,VALID,99.5603,VALID,0,VALID,19.2904,VALID,257,VALID,0.19436,
2003-02-17, 00:56:00,VALID,919.659,VALID,0,VALID,99.5628,VALID,0,VALID,19.3128,VALID,293,VALID,0.298564,
2003-02-17, 00:57:00,VALID,919.643,VALID,0,VALID,99.559,VALID,0,VALID,19.3061,VALID,1,VALID,0.650781,
2003-02-17, 00:58:00,VALID,919.63,VALID,0,VALID,99.5704,VALID,0.0169808,VALID,19.3066,VALID,9,VALID,0.571205,
2003-02-17, 00:59:00,VALID,919.626,VALID,0,VALID,99.5603,VALID,0.0169808,VALID,19.3128,VALID,14,VALID,0.662723,
2003-02-17, 01:00:00,VALID,919.606,VALID,0,VALID,99.573,VALID,0,VALID,19.329,VALID,16,VALID,0.251116,
2003-02-17, 01:01:00,VALID,919.584,VALID,0,VALID,99.5603,VALID,0,VALID,19.3349,VALID,16,VALID,0.16913,
2003-02-17, 01:02:00,VALID,919.569,VALID,0.2,VALID,99.5704,VALID,0,VALID,19.3446,VALID,16,VALID,0.0197368,
2003-02-17, 01:03:00,VALID,919.553,VALID,0,VALID,99.5692,VALID,0,VALID,19.3613,VALID,16,VALID,0.0498311,
2003-02-17, 01:04:00,VALID,919.546,VALID,0,VALID,99.5654,VALID,0,VALID,19.3551,VALID,16,VALID,0.036801,
2003-02-17, 01:05:00,VALID,919.546,VALID,0,VALID,99.5641,VALID,-0.0169808,VALID,19.3615,VALID,16,VALID,0.0224095,
2003-02-17, 01:06:00,VALID,919.529,VALID,0,VALID,99.5794,VALID,-0.0849042,VALID,19.3782,VALID,16,VALID,0.467187,
2003-02-17, 01:07:00,VALID,919.516,VALID,0,VALID,99.5819,VALID,-0.101885,VALID,19.408,VALID,16,VALID,0.622472,
2003-02-17, 01:08:00,VALID,919.501,VALID,0,VALID,99.5883,VALID,-0.0849042,VALID,19.4105,VALID,16,VALID,0.37207,
2003-02-17, 01:09:00,VALID,919.482,VALID,0,VALID,99.5895,VALID,-0.0679233,VALID,19.3973,VALID,15,VALID,0.515825,
2003-02-17, 01:10:00,VALID,919.472,VALID,0,VALID,99.573,VALID,-0.101885,VALID,19.3717,VALID,10,VALID,0.691512,
2003-02-17, 01:11:00,VALID,919.449,VALID,0,VALID,99.5628,VALID,-0.101885,VALID,19.3516,VALID,11,VALID,0.622596,
2003-02-17, 01:12:00,VALID,919.448,VALID,0,VALID,99.5539,VALID,-0.0849042,VALID,19.3724,VALID,15,VALID,0.674753,
2003-02-17, 01:13:00,VALID,919.443,VALID,0,VALID,99.5577,VALID,-0.0509425,VALID,19.3754,VALID,17,VALID,0.651042,
2003-02-17, 01:14:00,VALID,919.443,VALID,0,VALID,99.5616,VALID,-0.0849042,VALID,19.3747,VALID,10,VALID,0.407965,
2003-02-17, 01:15:00,VALID,919.428,VALID,0,VALID,99.5603,VALID,-0.0849042,VALID,19.3784,VALID,3,VALID,0.340745,
2003-02-17, 01:16:00,VALID,919.425,VALID,0,VALID,99.5603,VALID,-0.101885,VALID,19.3914,VALID,9,VALID,0.373851,
2003-02-17, 01:17:00,VALID,919.41,VALID,0,VALID,99.559,VALID,-0.0849042,VALID,19.3881,VALID,9,VALID,0.285156,
2003-02-17, 01:18:00,VALID,919.402,VALID,0,VALID,99.5577,VALID,-0.0849042,VALID,19.3745,VALID,8,VALID,0.0382179,
2003-02-17, 01:19:00,VALID,919.4,VALID,0,VALID,99.5628,VALID,-0.101885,VALID,19.4013,VALID,8,VALID,0.0994141,
2003-02-17, 01:20:00,VALID,919.39,VALID,0,VALID,99.5603,VALID,-0.0679233,VALID,19.3745,VALID,5,VALID,0.332532,
2003-02-17, 01:21:00,VALID,919.36,VALID,0,VALID,99.5666,VALID,0.0169808,VALID,19.3638,VALID,5,VALID,0.0880335,
2003-02-17, 01:22:00,VALID,919.357,VALID,0,VALID,99.5654,VALID,0,VALID,19.3673,VALID,4,VALID,0.000211149,
2003-02-17, 01:23:00,VALID,919.345,VALID,0,VALID,99.5616,VALID,0.0169808,VALID,19.3633,VALID,293,VALID,0.363381,
2003-02-17, 01:24:00,VALID,919.316,VALID,0,VALID,99.5616,VALID,0.0169808,VALID,19.3703,VALID,341,VALID,0.445122,
2003-02-17, 01:25:00,VALID,919.28,VALID,0,VALID,99.5577,VALID,0.0169808,VALID,19.3633,VALID,355,VALID,0.38384,
2003-02-17, 01:26:00,VALID,919.262,VALID,0,VALID,99.5628,VALID,0.0169808,VALID,19.3929,VALID,19,VALID,0.486378,
2003-02-17, 01:27:00,VALID,919.241,VALID,0,VALID,99.5654,VALID,0.0339617,VALID,19.3996,VALID,4,VALID,0.698438,
2003-02-17, 01:28:00,VALID,919.223,VALID,0,VALID,99.559,VALID,0,VALID,19.3837,VALID,356,VALID,0.83133,
2003-02-17, 01:29:00,VALID,919.197,VALID,0,VALID,99.5514,VALID,0.0169808,VALID,19.37,VALID,343,VALID,0.628906,
2003-02-17, 01:30:00,VALID,919.178,VALID,0,VALID,99.5463,VALID,0.0169808,VALID,19.37,VALID,346,VALID,0.323918,
2003-02-17, 01:31:00,VALID,919.152,VALID,0,VALID,99.5539,VALID,0,VALID,19.3864,VALID,350,VALID,0.169207,
2003-02-17, 01:32:00,VALID,919.14,VALID,0,VALID,99.559,VALID,0.0339617,VALID,19.3961,VALID,350,VALID,0.00183824,
2003-02-17, 01:33:00,VALID,919.114,VALID,0,VALID,99.5654,VALID,-0.0169808,VALID,19.4026,VALID,340,VALID,0.214021,
2003-02-17, 01:34:00,VALID,919.09,VALID,0,VALID,99.5463,VALID,0,VALID,19.3899,VALID,1,VALID,0.388936,
2003-02-17, 01:35:00,VALID,919.06,VALID,0,VALID,99.5527,VALID,0.0169808,VALID,19.3894,VALID,19,VALID,0.311022,
2003-02-17, 01:36:00,VALID,919.054,VALID,0,VALID,99.5577,VALID,0,VALID,19.4093,VALID,20,VALID,0.37843,
2003-02-17, 01:37:00,VALID,919.025,VALID,0,VALID,99.5539,VALID,0.0169808,VALID,19.4155,VALID,20,VALID,0.56065,
2003-02-17, 01:38:00,VALID,919.007,VALID,0,VALID,99.5336,VALID,0,VALID,19.4123,VALID,16,VALID,0.854235,
2003-02-17, 01:39:00,VALID,919.006,VALID,0,VALID,99.5387,VALID,0.0169808,VALID,19.3802,VALID,15,VALID,0.700304,
2003-02-17, 01:40:00,VALID,918.993,VALID,0,VALID,99.5259,VALID,0,VALID,19.374,VALID,14,VALID,0.695703,
2003-02-17, 01:41:00,VALID,918.992,VALID,0,VALID,99.5221,VALID,0.0169808,VALID,19.3538,VALID,9,VALID,0.777127,
2003-02-17, 01:42:00,VALID,919.005,VALID,0,VALID,99.5069,VALID,0,VALID,19.3479,VALID,6,VALID,0.735377,
2003-02-17, 01:43:00,VALID,919,VALID,0,VALID,99.5056,VALID,0.0169808,VALID,19.3377,VALID,3,VALID,0.617188,
2003-02-17, 01:44:00,VALID,919.008,VALID,0,VALID,99.5107,VALID,0.0169808,VALID,19.3481,VALID,2,VALID,0.518429,
2003-02-17, 01:45:00,VALID,919.012,VALID,0,VALID,99.5069,VALID,0.0339617,VALID,19.3444,VALID,360,VALID,0.711538,
2003-02-17, 01:46:00,VALID,918.995,VALID,0,VALID,99.4954,VALID,0,VALID,19.3382,VALID,6,VALID,1.14443,
2003-02-17, 01:47:00,VALID,918.987,VALID,0,VALID,99.5081,VALID,0,VALID,19.3282,VALID,12,VALID,1.32637,
2003-02-17, 01:48:00,VALID,918.977,VALID,0,VALID,99.5056,VALID,0,VALID,19.3416,VALID,10,VALID,1.47812,
2003-02-17, 01:49:00,VALID,918.959,VALID,0,VALID,99.4967,VALID,-0.0169808,VALID,19.3513,VALID,18,VALID,1.18113,
2003-02-17, 01:50:00,VALID,918.951,VALID,0,VALID,99.5005,VALID,0,VALID,19.3414,VALID,8,VALID,1.00402,
2003-02-17, 01:51:00,VALID,918.931,VALID,0,VALID,99.5031,VALID,0,VALID,19.3546,VALID,8,VALID,1.19297,
2003-02-17, 01:52:00,VALID,918.922,VALID,0,VALID,99.5031,VALID,0.0169808,VALID,19.3608,VALID,10,VALID,1.26763,
2003-02-17, 01:53:00,VALID,918.891,VALID,0,VALID,99.484,VALID,0,VALID,19.3511,VALID,13,VALID,0.7375,
2003-02-17, 01:54:00,VALID,918.884,VALID,0,VALID,99.4827,VALID,0,VALID,19.3511,VALID,10,VALID,0.684295,
2003-02-17, 01:55:00,VALID,918.893,VALID,0,VALID,99.4573,VALID,0,VALID,19.3419,VALID,218,VALID,0.549543,
2003-02-17, 01:56:00,VALID,918.887,VALID,0,VALID,99.4293,VALID,-0.0169808,VALID,19.3031,VALID,200,VALID,0.451858,
2003-02-17, 01:57:00,VALID,918.885,VALID,0,VALID,99.4268,VALID,0.0339617,VALID,19.2937,VALID,112,VALID,0.34395,
2003-02-17, 01:58:00,VALID,918.883,VALID,0,VALID,99.456,VALID,0,VALID,19.2962,VALID,147,VALID,0.189844,
2003-02-17, 01:59:00,VALID,918.886,VALID,0,VALID,99.484,VALID,-0.0169808,VALID,19.3287,VALID,217,VALID,0.29516,
2003-02-17, 02:00:00,VALID,918.881,VALID,0,VALID,99.4802,VALID,-0.0169808,VALID,19.3511,VALID,239,VALID,0.545387,
2003-02-17, 02:01:00,VALID,918.895,VALID,0,VALID,99.4865,VALID,0.0169808,VALID,19.3745,VALID,242,VALID,0.082348,
2003-02-17, 02:02:00,VALID,918.888,VALID,0,VALID,99.4814,VALID,0.0339617,VALID,19.377,VALID,242,VALID,0,
2003-02-17, 02:03:00,VALID,918.884,VALID,0,VALID,99.4814,VALID,0,VALID,19.3705,VALID,285,VALID,0.124428,
2003-02-17, 02:04:00,VALID,918.886,VALID,0,VALID,99.4522,VALID,0,VALID,19.3541,VALID,274,VALID,0.155194,
2003-02-17, 02:05:00,VALID,918.891,VALID,0,VALID,99.428,VALID,-0.0169808,VALID,19.3287,VALID,197,VALID,0.0287109,
2003-02-17, 02:06:00,VALID,918.889,VALID,0,VALID,99.4204,VALID,-0.0679233,VALID,19.323,VALID,197,VALID,0.226563,
2003-02-17, 02:07:00,VALID,918.875,VALID,0,VALID,99.428,VALID,-0.0679233,VALID,19.3232,VALID,197,VALID,0.20558,
2003-02-17, 02:08:00,VALID,918.866,VALID,0,VALID,99.442,VALID,-0.0509425,VALID,19.3265,VALID,197,VALID,0.0229911,
2003-02-17, 02:09:00,VALID,918.852,VALID,0,VALID,99.4433,VALID,-0.0339617,VALID,19.3461,VALID,197,VALID,0,
2003-02-17, 02:10:00,VALID,918.834,VALID,0,VALID,99.4573,VALID,-0.0679233,VALID,19.3362,VALID,197,VALID,0,
2003-02-17, 02:11:00,VALID,918.808,VALID,0,VALID,99.4675,VALID,-0.0679233,VALID,19.3362,VALID,197,VALID,0,
2003-02-17, 02:12:00,VALID,918.781,VALID,0,VALID,99.4738,VALID,-0.0339617,VALID,19.3493,VALID,197,VALID,0,
2003-02-17, 02:13:00,VALID,918.76,VALID,0,VALID,99.4662,VALID,-0.0509425,VALID,19.3334,VALID,197,VALID,0,
2003-02-17, 02:14:00,VALID,918.736,VALID,0,VALID,99.4675,VALID,-0.0679233,VALID,19.317,VALID,197,VALID,0,
2003-02-17, 02:15:00,VALID,918.703,VALID,0,VALID,99.4725,VALID,-0.0679233,VALID,19.3237,VALID,197,VALID,0,
2003-02-17, 02:16:00,VALID,918.66,VALID,0,VALID,99.4827,VALID,-0.0339617,VALID,19.3103,VALID,197,VALID,0.00371094,
2003-02-17, 02:17:00,VALID,918.619,VALID,0,VALID,99.4751,VALID,-0.0509425,VALID,19.2907,VALID,197,VALID,0.132212,
2003-02-17, 02:18:00,VALID,918.582,VALID,0,VALID,99.4738,VALID,-0.0509425,VALID,19.278,VALID,197,VALID,0,
2003-02-17, 02:19:00,VALID,918.559,VALID,0,VALID,99.4827,VALID,-0.0339617,VALID,19.2685,VALID,197,VALID,0.286058,
2003-02-17, 02:20:00,VALID,918.504,VALID,0,VALID,99.4751,VALID,-0.0849042,VALID,19.2424,VALID,197,VALID,0.654605,
2003-02-17, 02:21:00,VALID,918.49,VALID,0,VALID,99.4471,VALID,-0.0509425,VALID,19.1616,VALID,40,VALID,0.881098,
2003-02-17, 02:22:00,VALID,918.445,VALID,0,VALID,99.4433,VALID,-0.0169808,VALID,19.142,VALID,30,VALID,0.730755,
2003-02-17, 02:23:00,VALID,918.44,VALID,0,VALID,99.4496,VALID,-0.0509425,VALID,19.1228,VALID,28,VALID,0.514824,
2003-02-17, 02:24:00,VALID,918.415,VALID,0,VALID,99.4496,VALID,-0.0679233,VALID,19.1004,VALID,8,VALID,0.5733,
2003-02-17, 02:25:00,VALID,918.393,VALID,0,VALID,99.4509,VALID,-0.0339617,VALID,19.0676,VALID,8,VALID,0.540234,
2003-02-17, 02:26:00,VALID,918.365,VALID,0,VALID,99.484,VALID,-0.0509425,VALID,19.0515,VALID,8,VALID,0.449747,
2003-02-17, 02:27:00,VALID,918.341,VALID,0,VALID,99.4942,VALID,-0.0339617,VALID,19.0584,VALID,8,VALID,0.205859,
2003-02-17, 02:28:00,VALID,918.324,VALID,0,VALID,99.5183,VALID,-0.0679233,VALID,19.0711,VALID,20,VALID,0.493189,
2003-02-17, 02:29:00,VALID,918.307,VALID,0,VALID,99.5412,VALID,-0.0169808,VALID,19.0868,VALID,59,VALID,0.523438,
2003-02-17, 02:30:00,VALID,918.279,VALID,0,VALID,99.5616,VALID,-0.0339617,VALID,19.1129,VALID,72,VALID,0.633868,
2003-02-17, 02:31:00,VALID,918.251,VALID,0,VALID,99.5921,VALID,-0.0339617,VALID,19.1325,VALID,77,VALID,0.798077,
2003-02-17, 02:32:00,VALID,918.243,VALID,0,VALID,99.5946,VALID,-0.0169808,VALID,19.1581,VALID,74,VALID,0.526486,
2003-02-17, 02:33:00,VALID,918.234,VALID,0,VALID,99.6048,VALID,-0.0169808,VALID,19.1519,VALID,74,VALID,0.55551,
2003-02-17, 02:34:00,VALID,918.224,VALID,0,VALID,99.6048,VALID,-0.0339617,VALID,19.1452,VALID,73,VALID,0.641827,
2003-02-17, 02:35:00,VALID,918.211,VALID,0,VALID,99.6086,VALID,-0.0169808,VALID,19.1517,VALID,58,VALID,0.665039,
2003-02-17, 02:36:00,VALID,918.186,VALID,0,VALID,99.6175,VALID,-0.0339617,VALID,19.1457,VALID,33,VALID,0.432292,
2003-02-17, 02:37:00,VALID,918.171,VALID,0,VALID,99.6086,VALID,-0.0339617,VALID,19.1194,VALID,15,VALID,0.573633,
2003-02-17, 02:38:00,VALID,918.154,VALID,0,VALID,99.6137,VALID,-0.0509425,VALID,19.1196,VALID,352,VALID,0.521635,
2003-02-17, 02:39:00,VALID,918.138,VALID,0,VALID,99.6073,VALID,-0.0509425,VALID,19.1198,VALID,351,VALID,0.380716,
2003-02-17, 02:40:00,VALID,918.116,VALID,0,VALID,99.6239,VALID,-0.0679233,VALID,19.1191,VALID,351,VALID,0.39545,
2003-02-17, 02:41:00,VALID,918.089,VALID,0,VALID,99.6391,VALID,-0.0509425,VALID,19.1524,VALID,329,VALID,0.681332,
2003-02-17, 02:42:00,VALID,918.071,VALID,0,VALID,99.6442,VALID,0,VALID,19.1681,VALID,1,VALID,0.94109,
2003-02-17, 02:43:00,VALID,918.055,VALID,0,VALID,99.6366,VALID,-0.0849042,VALID,19.1646,VALID,21,VALID,1.19742,
2003-02-17, 02:44:00,VALID,918.031,VALID,0,VALID,99.6569,VALID,-0.0339617,VALID,19.1713,VALID,8,VALID,1.238,
2003-02-17, 02:45:00,VALID,918.001,VALID,0,VALID,99.6556,VALID,-0.0339617,VALID,19.1748,VALID,3,VALID,1.01994,
2003-02-17, 02:46:00,VALID,917.986,VALID,0,VALID,99.6595,VALID,-0.0169808,VALID,19.1937,VALID,352,VALID,1.06312,
2003-02-17, 02:47:00,VALID,917.973,VALID,0,VALID,99.6607,VALID,-0.0679233,VALID,19.1939,VALID,9,VALID,0.764757,
2003-02-17, 02:48:00,VALID,917.958,VALID,0,VALID,99.6722,VALID,-0.0509425,VALID,19.2103,VALID,4,VALID,0.958789,
2003-02-17, 02:49:00,VALID,917.95,VALID,0,VALID,99.6709,VALID,-0.0679233,VALID,19.2133,VALID,356,VALID,0.819444,
2003-02-17, 02:50:00,VALID,917.941,VALID,0,VALID,99.6785,VALID,-0.0169808,VALID,19.2096,VALID,9,VALID,1.15304,
2003-02-17, 02:51:00,VALID,917.934,VALID,0,VALID,99.6862,VALID,-0.0509425,VALID,19.2357,VALID,14,VALID,0.908008,
2003-02-17, 02:52:00,VALID,917.921,VALID,0,VALID,99.6824,VALID,-0.0339617,VALID,19.2588,VALID,359,VALID,1.10677,
2003-02-17, 02:53:00,VALID,917.92,VALID,0,VALID,99.6963,VALID,-0.0339617,VALID,19.2586,VALID,6,VALID,0.688301,
2003-02-17, 02:54:00,VALID,917.905,VALID,0,VALID,99.7002,VALID,0,VALID,19.2747,VALID,22,VALID,0.69848,
2003-02-17, 02:55:00,VALID,917.9,VALID,0,VALID,99.6976,VALID,-0.0509425,VALID,19.2974,VALID,21,VALID,0.578125,
2003-02-17, 02:56:00,VALID,917.912,VALID,0,VALID,99.6887,VALID,-0.0339617,VALID,19.3043,VALID,19,VALID,0.227344,
2003-02-17, 02:57:00,VALID,917.901,VALID,0,VALID,99.6951,VALID,-0.0509425,VALID,19.281,VALID,4,VALID,0.57977,
2003-02-17, 02:58:00,VALID,917.888,VALID,0,VALID,99.7027,VALID,-0.0339617,VALID,19.3145,VALID,25,VALID,0.122159,
2003-02-17, 02:59:00,VALID,917.885,VALID,0,VALID,99.6976,VALID,-0.0509425,VALID,19.2907,VALID,359,VALID,0.19082,
2003-02-17, 03:00:00,VALID,917.897,VALID,0,VALID,99.6925,VALID,-0.0509425,VALID,19.3011,VALID,334,VALID,0.0677083,
2003-02-17, 03:01:00,VALID,917.891,VALID,0,VALID,99.6963,VALID,-0.0679233,VALID,19.2949,VALID,330,VALID,0.249023,
2003-02-17, 03:02:00,VALID,917.888,VALID,0,VALID,99.7014,VALID,-0.0849042,VALID,19.2874,VALID,329,VALID,0.0512821,
2003-02-17, 03:03:00,VALID,917.884,VALID,0,VALID,99.7027,VALID,-0.0339617,VALID,19.2969,VALID,332,VALID,0.0209604,
2003-02-17, 03:04:00,VALID,917.878,VALID,0,VALID,99.7103,VALID,-0.0679233,VALID,19.3302,VALID,340,VALID,0.201858,
2003-02-17, 03:05:00,VALID,917.881,VALID,0,VALID,99.7103,VALID,0,VALID,19.3364,VALID,349,VALID,0.401242,
2003-02-17, 03:06:00,VALID,917.883,VALID,0,VALID,99.7129,VALID,0.0339617,VALID,19.3479,VALID,1,VALID,0.445898,
2003-02-17, 03:07:00,VALID,917.887,VALID,0,VALID,99.7116,VALID,0.0339617,VALID,19.364,VALID,5,VALID,0.279916,
2003-02-17, 03:08:00,VALID,917.893,VALID,0,VALID,99.7103,VALID,0.0509425,VALID,19.3633,VALID,4,VALID,0.0355283,
2003-02-17, 03:09:00,VALID,917.896,VALID,0,VALID,99.7129,VALID,0.0679233,VALID,19.3608,VALID,248,VALID,0.751689,
2003-02-17, 03:10:00,VALID,917.909,VALID,0,VALID,99.6989,VALID,0.0339617,VALID,19.3315,VALID,246,VALID,0.378811,
2003-02-17, 03:11:00,VALID,917.91,VALID,0,VALID,99.6925,VALID,0.0509425,VALID,19.3054,VALID,240,VALID,0.44798,
2003-02-17, 03:12:00,VALID,917.905,VALID,0,VALID,99.6874,VALID,0.0679233,VALID,19.2989,VALID,208,VALID,0.614443,
2003-02-17, 03:13:00,VALID,917.896,VALID,0,VALID,99.6951,VALID,0.0509425,VALID,19.2897,VALID,194,VALID,0.349609,
2003-02-17, 03:14:00,VALID,917.889,VALID,0,VALID,99.6925,VALID,0.0849042,VALID,19.2698,VALID,240,VALID,0.682813,
2003-02-17, 03:15:00,VALID,917.878,VALID,0,VALID,99.6836,VALID,0.0339617,VALID,19.2666,VALID,230,VALID,0.971652,
2003-02-17, 03:16:00,VALID,917.874,VALID,0,VALID,99.69,VALID,0.0679233,VALID,19.2668,VALID,238,VALID,0.730357,
2003-02-17, 03:17:00,VALID,917.86,VALID,0,VALID,99.6925,VALID,0.0509425,VALID,19.2735,VALID,242,VALID,0.150549,
2003-02-17, 03:18:00,VALID,917.847,VALID,0,VALID,99.7002,VALID,0.0509425,VALID,19.2638,VALID,267,VALID,0.102179,
2003-02-17, 03:19:00,VALID,917.84,VALID,0,VALID,99.7129,VALID,0.0509425,VALID,19.2897,VALID,336,VALID,0.276605,
2003-02-17, 03:20:00,VALID,917.842,VALID,0,VALID,99.7103,VALID,0.0169808,VALID,19.2937,VALID,352,VALID,0.556538,
2003-02-17, 03:21:00,VALID,917.818,VALID,0,VALID,99.7091,VALID,-0.0679233,VALID,19.2837,VALID,11,VALID,0.840255,
2003-02-17, 03:22:00,VALID,917.816,VALID,0,VALID,99.7154,VALID,-0.0339617,VALID,19.3071,VALID,19,VALID,0.95957,
2003-02-17, 03:23:00,VALID,917.805,VALID,0,VALID,99.7129,VALID,-0.0339617,VALID,19.32,VALID,23,VALID,0.786994,
2003-02-17, 03:24:00,VALID,917.791,VALID,0,VALID,99.7269,VALID,0,VALID,19.3262,VALID,17,VALID,0.493945,
2003-02-17, 03:25:00,VALID,917.781,VALID,0,VALID,99.7294,VALID,-0.0509425,VALID,19.313,VALID,17,VALID,0.265625,
2003-02-17, 03:26:00,VALID,917.78,VALID,0,VALID,99.7332,VALID,-0.0509425,VALID,19.3327,VALID,17,VALID,0.150338,
2003-02-17, 03:27:00,VALID,917.787,VALID,0,VALID,99.7294,VALID,-0.0509425,VALID,19.3324,VALID,17,VALID,0,
2003-02-17, 03:28:00,VALID,917.794,VALID,0,VALID,99.7256,VALID,-0.0679233,VALID,19.3463,VALID,17,VALID,0.25185,
2003-02-17, 03:29:00,VALID,917.793,VALID,0,VALID,99.7358,VALID,-0.0679233,VALID,19.3459,VALID,17,VALID,0.560897,
2003-02-17, 03:30:00,VALID,917.781,VALID,0,VALID,99.7459,VALID,-0.0169808,VALID,19.362,VALID,19,VALID,0.746189,
2003-02-17, 03:31:00,VALID,917.786,VALID,0,VALID,99.7358,VALID,-0.0169808,VALID,19.3747,VALID,23,VALID,0.950521,
2003-02-17, 03:32:00,VALID,917.78,VALID,0,VALID,99.7319,VALID,-0.0509425,VALID,19.3914,VALID,23,VALID,1.01953,
2003-02-17, 03:33:00,VALID,917.794,VALID,0,VALID,99.7447,VALID,0,VALID,19.3839,VALID,22,VALID,0.835742,
2003-02-17, 03:34:00,VALID,917.785,VALID,0,VALID,99.7396,VALID,-0.0339617,VALID,19.3911,VALID,21,VALID,0.73353,
2003-02-17, 03:35:00,VALID,917.795,VALID,0,VALID,99.7358,VALID,-0.0849042,VALID,19.3936,VALID,23,VALID,0.516992,